RPA5840 KBOS-KLGA

Flight info

Callsign RPA5840
Flight time N/A
Altitude 16000
Route PATSS7 PATSS NELIE VADDR1
Aircraft CRJ9/M-SDFGIRWY/L

Departure

Time 2026-05-05 00:00
Airport Boston Logan International Airport (KBOS)

Arrival

Time N/A
Airport LaGuardia Airport (KLGA)
Time Latitude Longitude Altitude Speed Heading
2026-05-04 23:34 42.36397 -71.02249 23 ft 0 kts 32°
2026-05-04 23:41 42.36397 -71.02248 23 ft 0 kts 32°
2026-05-04 23:42 42.36398 -71.02248 23 ft 0 kts 32°
2026-05-04 23:45 42.36385 -71.02259 23 ft 2 kts 34°
2026-05-04 23:46 42.36372 -71.02272 24 ft 2 kts 38°
2026-05-04 23:46 42.36360 -71.02287 22 ft 2 kts 48°
2026-05-04 23:46 42.36352 -71.02307 24 ft 2 kts 90°
2026-05-04 23:46 42.36357 -71.02321 24 ft 1 kts 140°
2026-05-04 23:48 42.36355 -71.02319 25 ft 1 kts 141°
2026-05-04 23:48 42.36337 -71.02295 23 ft 6 kts 127°
2026-05-04 23:48 42.36299 -71.02238 22 ft 10 kts 155°
2026-05-04 23:49 42.36236 -71.02255 21 ft 9 kts 221°
2026-05-04 23:49 42.36212 -71.02322 21 ft 7 kts 248°
2026-05-04 23:49 42.36189 -71.02349 22 ft 2 kts 182°
2026-05-04 23:49 42.36185 -71.02349 22 ft 0 kts 183°
2026-05-04 23:51 42.36184 -71.02350 22 ft 1 kts 183°
2026-05-04 23:51 42.36177 -71.02350 23 ft 1 kts 183°
2026-05-04 23:51 42.36165 -71.02351 23 ft 4 kts 184°
2026-05-04 23:51 42.36109 -71.02337 23 ft 13 kts 153°
2026-05-04 23:52 42.36027 -71.02246 22 ft 17 kts 121°
2026-05-04 23:52 42.35959 -71.02091 23 ft 21 kts 121°
2026-05-04 23:52 42.35885 -71.01923 23 ft 19 kts 121°
2026-05-04 23:52 42.35843 -71.01765 23 ft 17 kts 102°
2026-05-04 23:53 42.35822 -71.01621 22 ft 12 kts 89°
2026-05-04 23:53 42.35877 -71.01554 22 ft 12 kts 20°
2026-05-04 23:53 42.35966 -71.01511 20 ft 15 kts 19°
2026-05-04 23:53 42.36073 -71.01459 20 ft 18 kts 19°
2026-05-04 23:54 42.36198 -71.01398 16 ft 21 kts 20°
2026-05-04 23:54 42.36345 -71.01327 14 ft 23 kts 20°
2026-05-04 23:54 42.36497 -71.01253 13 ft 23 kts 20°
2026-05-04 23:54 42.36631 -71.01189 15 ft 18 kts 19°
2026-05-04 23:55 42.36749 -71.01138 14 ft 18 kts
2026-05-04 23:55 42.36855 -71.01219 11 ft 15 kts 341°
2026-05-04 23:55 42.37020 -71.01087 11 ft 15 kts 26°
2026-05-04 23:56 42.37122 -71.01020 10 ft 17 kts 26°
2026-05-04 23:56 42.37235 -71.00946 10 ft 19 kts 26°
2026-05-04 23:56 42.37367 -71.00871 8 ft 21 kts 20°
2026-05-04 23:56 42.37494 -71.00811 13 ft 18 kts 19°
2026-05-04 23:57 42.37610 -71.00754 15 ft 17 kts 20°
2026-05-04 23:57 42.37710 -71.00706 20 ft 14 kts 19°
2026-05-04 23:57 42.37794 -71.00666 22 ft 13 kts 20°
2026-05-04 23:57 42.37838 -71.00580 21 ft 11 kts 106°
2026-05-04 23:58 42.37837 -71.00575 21 ft 0 kts 108°
2026-05-04 23:59 42.37832 -71.00557 -7 ft 4 kts 108°
2026-05-04 23:59 42.37815 -71.00499 19 ft 8 kts 125°
2026-05-04 23:59 42.37762 -71.00485 18 ft 9 kts 198°
2026-05-04 23:59 42.37706 -71.00512 18 ft 10 kts 199°
2026-05-05 00:00 42.37428 -71.00647 12 ft 80 kts 200°
2026-05-05 00:00 42.37224 -71.00745 6 ft 104 kts 200°
2026-05-05 00:00 42.35658 -71.01514 463 ft 159 kts 200°
2026-05-05 00:00 42.34624 -71.01838 1512 ft 156 kts 179°
2026-05-05 00:01 42.33745 -71.00881 2328 ft 183 kts 125°
2026-05-05 00:01 42.33555 -70.99062 2717 ft 205 kts 96°
2026-05-05 00:01 42.33375 -70.97131 3225 ft 209 kts 104°
2026-05-05 00:01 42.33110 -70.95113 3621 ft 228 kts 104°
2026-05-05 00:02 42.32799 -70.92936 4155 ft 246 kts 104°
2026-05-05 00:02 42.32434 -70.90568 4594 ft 270 kts 105°
2026-05-05 00:02 42.31908 -70.87980 4812 ft 302 kts 102°
2026-05-05 00:02 42.31953 -70.85107 4978 ft 307 kts 81°